Regional Weather Roundup
Issued by NWS Albany, NY

Home | Current Version | Previous Version | Text Only | Print | Product List | Glossary On
Versions: 1 2 3 4 5 6 7 8 9 10 11 12 13 14 15 16 17 18 19 20 21 22 23 24 25 26 27 28 29 30 31 32 33 34 35 36 37 38 39 40 41 42 43 44 45 46 47 48 49 50
000
ASUS41 KALY 040410
RWRALY

NEW YORK STATE HOURLY WEATHER ROUNDUP
NATIONAL WEATHER SERVICE ALBANY NY
1200 AM EDT TUE AUG 04 2015

NOTE: "FAIR" INDICATES FEW OR NO CLOUDS BELOW 12,000 FEET WITH NO
SIGNIFICANT WEATHER AND/OR NO OBSTRUCTIONS TO VISIBILITY.

NYZ032-033-038>043-046>054-057>066-NYZ062>081-040500-
EAST


CITY           SKY/WX    TMP DP  RH WIND       PRES   REMARKS
ALBANY         MOCLDY    68  65  90 CALM      29.81S
GLENS FALLS    LGT RAIN  68  64  87 S3        29.80R
POUGHKEEPSIE   PTCLDY    72  63  73 CALM      29.79S
NEWBURGH       CLEAR     75  64  69 W7        29.83S
MONTGOMERY     PTCLDY    72  64  76 CALM      29.80F
WHITE PLAINS   PTCLDY    76  61  59 CALM      29.82S
ISLIP          PTCLDY    77  73  87 SW10      29.81S
NEW YORK CITY  PTCLDY    84  60  44 SW10      29.80F
CENTRAL PARK   PTCLDY    83  60  45 CALM      29.84S
$$

NYZ005>009-017-018-044>046-055-056-040500-
CENTRAL


CITY           SKY/WX    TMP DP  RH WIND       PRES   REMARKS
FULTON         CLEAR     62  59  90 CALM      29.79R
SYRACUSE       PTCLDY    66  64  93 SE3       29.78F
ROME           CLEAR     63  62  97 E3        29.82R
ELMIRA         PTCLDY    64  63  96 CALM      29.81F
BINGHAMTON     MOCLDY    65  59  81 W5        29.84F
MONTICELLO     MOCLDY    66  64  94 CALM      29.87S
$$

NYZ026>034-041>043-040500-
NORTH


CITY           SKY/WX    TMP DP  RH WIND       PRES   REMARKS
WATERTOWN      CLEAR     64  59  83 S5        29.77R
FORT DRUM      NOT AVBL
MASSENA        CLEAR     64  58  80 SW9       29.75R
SARANAC LAKE   CLEAR     58  58 100 SW5       29.81R
PLATTSBURGH    PTCLDY    64  61  90 CALM      29.76R
$$

NYZ001>004-010>016-019>021-040500-
WEST


CITY           SKY/WX    TMP DP  RH WIND       PRES   REMARKS
NIAGARA FALLS  PTCLDY    66  55  67 W3        29.80S
BUFFALO        PTCLDY    68  60  75 W5        29.81R
DUNKIRK        MOCLDY    64  63  96 CALM      29.82S
JAMESTOWN      MOCLDY    64  57  77 W3        29.86F
WELLSVILLE     PTCLDY    64  56  75 SW6       29.88F
ROCHESTER      PTCLDY    68  61  78 W6        29.80S
PENN YAN       PTCLDY    67  64  90 S6        29.82F
$$

             KEY
       WCI = WIND CHILL INDEX
       VSB = VISIBILITY
       HX  = HEAT INDEX
$$


USA.gov is the U.S. government's official web portal to all federal, state and local government web resources and services.